Flag for Germany Weather past 2 weeks in Herrenberg, Baden-Württemberg, Germany

Now
16 °F

Passing clouds.


Feels Like: 5 °F
Forecast: 19 / 29 °F
Wind: 8 mph from Southwest

Location: Stuttgart-Echterdingen

Current Time: Dec 29, 2014 at 8:28:35 AM

Latest Report: Dec 29, 2014 at 7:50 AM


Visibility: N/A

Pressure: 30.42 "Hg

Humidity: 86%

Dew point: 12 °F

Location of HerrenbergLocation

Historic Weather in Herrenberg — Graph

°F

Herrenberg temperature yesterday

Maximum temperature yesterday: 32 °F (at 12:20 AM)
Minimum temperature yesterday: 12 °F (at 11:20 PM)
Average temperature yesterday: 24 °F

Past Weeks' High & Low Weather Summary

 TemperatureHumidityPressure
High54 °F (Dec 18, 5:50 PM)100% (Dec 14, 2:50 PM)30.51 "Hg (Dec 14, 2:50 PM)
Low9 °F (Dec 29, 3:50 AM)38% (Dec 23, 2:20 PM)29.42 "Hg (Dec 27, 3:50 PM)
Average40 °F83%30.11 "Hg
* Reported Dec 14 7:20 AM — Dec 29 7:20 AM, Herrenberg, Weather by CustomWeather, © 2014

Note: Actual official high and low records may vary slightly from our data, if they occured in-between our weather recording intervals... More about our weather records

Advertising

Herrenberg weather history for previous 24 hours

 ConditionsComfort  
Time TempWeatherWind HumidityBarometerVisibility
7:20 AM
Dec 29
16 °FPartly cloudy.5 mph86%30.42 "HgN/A
6:50 AM14 °FPassing clouds.3 mph85%30.42 "HgN/A
6:20 AM16 °FPassing clouds.3 mph86%30.45 "HgN/A
5:50 AM14 °FPassing clouds.5 mph85%30.45 "HgN/A
5:20 AM14 °FPassing clouds.3 mph85%30.45 "HgN/A
4:20 AM9 °FPassing clouds.1 mph92%30.48 "HgN/A
3:50 AM9 °FPassing clouds.1 mph85%30.48 "HgN/A
3:20 AM10 °FPassing clouds.1 mph85%30.48 "HgN/A
2:50 AM10 °FPassing clouds.5 mph85%30.48 "HgN/A
2:20 AM12 °FPassing clouds.3 mph92%30.45 "HgN/A
1:50 AM10 °FPassing clouds.2 mph92%30.45 "HgN/A
1:20 AM10 °FPassing clouds.3 mph92%30.45 "HgN/A
12:50 AM10 °FClear.3 mph92%30.45 "Hg10 mi
12:20 AM10 °FClear.5 mph85%30.45 "Hg10 mi
11:50 PM
Dec 28
12 °FClear.2 mph85%30.45 "Hg10 mi
11:20 PM12 °FClear.2 mph85%30.42 "Hg10 mi
10:20 PM18 °FClear.3 mph73%30.42 "Hg10 mi
9:50 PM18 °FClear.5 mph73%30.39 "Hg10 mi
9:20 PM18 °FClear.7 mph73%30.39 "Hg10 mi
8:50 PM19 °FClear.7 mph63%30.39 "Hg10 mi
8:20 PM19 °FClear.7 mph68%30.36 "Hg10 mi
7:50 PM19 °FClear.6 mph68%30.33 "Hg10 mi
7:20 PM19 °FClear.6 mph68%30.33 "Hg10 mi
6:50 PM19 °FClear.7 mph68%30.30 "Hg10 mi
6:20 PM19 °FClear.6 mph68%30.30 "Hg10 mi
5:50 PM19 °FClear.7 mph73%30.27 "Hg10 mi
5:20 PM19 °FClear.8 mph73%30.24 "Hg10 mi
4:50 PM21 °FClear.7 mph68%30.21 "Hg10 mi
4:20 PM21 °FSunny.9 mph74%30.18 "Hg10 mi
3:50 PM23 °FScattered clouds.8 mph74%30.15 "HgN/A
3:20 PM23 °FScattered clouds.7 mph74%30.12 "HgN/A
2:50 PM23 °FBroken clouds.9 mph80%30.09 "HgN/A
2:20 PM23 °FPartly sunny.10 mph80%30.07 "HgN/A
1:50 PM25 °FBroken clouds.10 mph80%30.07 "HgN/A
1:20 PM25 °FBroken clouds.10 mph80%30.04 "HgN/A
12:50 PM25 °FLight snow. Broken clouds.12 mph86%30.01 "Hg4 mi
12:20 PM25 °FLight snow. Ice fog.15 mph93%30.01 "Hg2 mi
11:50 AM25 °FLight snow. Ice fog.13 mph93%29.98 "Hg2 mi
11:20 AM25 °FLight snow. Ice fog.12 mph93%29.95 "Hg3 mi
10:50 AM25 °FLight snow. Broken clouds.14 mph86%29.92 "Hg4 mi
10:20 AM25 °FLight snow. Partly sunny.15 mph86%29.89 "Hg4 mi
9:50 AM27 °FLight snow. Partly sunny.16 mph86%29.86 "Hg6 mi
9:20 AM27 °FLight snow. Partly sunny.15 mph86%29.86 "HgN/A
8:50 AM27 °FLight snow. Partly sunny.12 mph86%29.80 "Hg4 mi
8:20 AM27 °FLight snow. Ice fog.12 mph93%29.77 "Hg2 mi
Weather by CustomWeather, © 2014

See weather overviewHow to use our weather pages